Regional Weather Roundup
Issued by NWS Portland, ME

Current Version | Previous Version | Text Only | Print | Product List | Glossary Off
Versions: 1 2 3 4 5 6 7 8 9 10 11 12 13 14 15 16 17 18 19 20 21 22 23 24 25 26 27 28 29 30 31 32 33 34 35 36 37 38 39 40 41 42 43 44 45 46 47 48 49 50
000 ASUS41 KGYX 231905 RWRGYX WEATHER ROUNDUP FOR MAINE AND NEW HAMPSHIRE NATIONAL WEATHER SERVICE GRAY ME 300 PM EDT SAT JUN 23 2018 MEZ002-005-006-010-012-015-018-020-021-024-026-027-029-232000- MAINE CITY SKY/WX TMP DP RH WIND PRES REMARKS PORTLAND LGT RAIN 60 56 86 VRB5 29.96F SANFORD CLOUDY 59 54 83 N12 29.94F BAR HARBOR CLOUDY 65 46 50 SE5 29.97F WISCASSET LGT RAIN 65 53 65 VRB5 29.97F ROCKLAND FAIR 59 55 87 E7 29.97F FRYEBURG CLOUDY 65 54 67 SE9 29.95F LEWISTONAUBURN LGT RAIN 63 46 54 SE7 29.96F AUGUSTA PTSUNNY 70 46 42 SE9 29.95F WATERVILLE FAIR 67 50 54 VRB3 29.92F BANGOR CLOUDY 68 44 42 S8 29.95F GREENVILLE N/A 63 50 62 VRB5 29.93F MILLINOCKET FAIR 67 46 47 VRB6G16 29.94F HOULTON FAIR 69 53 56 SW12G20 29.90F PRESQUE ISLE FAIR 77 54 44 S13G22 29.86F FRENCHVILLE FAIR 79 51 37 SW12G21 29.84F CARIBOU FAIR 77 53 43 S8 29.85F $$ NHZ002-005-008-009-011-012-014-232000- NEW HAMPSHIRE CITY SKY/WX TMP DP RH WIND PRES REMARKS PORTSMOUTH CLOUDY 60 52 77 N6 29.92F ROCHESTER CLOUDY 58 54 86 N7 29.92F NASHUA LGT RAIN 61 52 72 VRB7 29.92F MANCHESTER CLOUDY 62 56 80 N7 29.90F CONCORD CLOUDY 57 51 80 NE9 29.93F LACONIA LGT RAIN 55 51 86 E9 29.95F PLYMOUTH CLOUDY 60 51 70 E6 29.94F BERLIN CLOUDY 66 49 54 SE12 29.93F WHITEFIELD CLOUDY 67 48 50 SE9G16 29.91F JAFFREY CLOUDY 59 52 77 VRB6 29.91F KEENE LGT RAIN 61 54 77 VRB3 29.90F LEBANON LGT RAIN 57 48 72 CALM 29.92F MT WASHINGTON PTSUNNY 45 18 33 S16 N/A $$ VTZ005-007-008-232000- VERMONT CITY SKY/WX TMP DP RH WIND PRES REMARKS ST JOHNSBURY N/A 67 50 54 MISG 29.88F MONTPELIER LGT RAIN 59 52 77 S7 29.95S BURLINGTON CLOUDY 70 52 52 S10 29.86F $$ MAZ007-012-024-CTZ003-RIZ002-NYZ038-NYZ072-232000- SOUTHERN NEW ENGLAND AND NY CITY SKY/WX TMP DP RH WIND PRES REMARKS BOSTON DRIZZLE 60 55 83 E13 29.90F WORCESTER CLOUDY 57 53 86 NE8 29.89F FOG NANTUCKET LGT RAIN 60 60 100 E8 29.84F FOG PROVIDENCE CLOUDY 65 59 81 NE13 29.86F HARTFORD CLOUDY 65 56 72 NE8 29.87F ALBANY CLOUDY 59 54 83 N5 29.89S NEW YORK CITY CLOUDY 64 59 83 NE13 29.84F $$ ANZ081-ANZ082-ANZ150-NHZ014-MEZ023>029-232000- COASTAL MARINE OBSERVATIONS STATION/POSITION TIME TEMP WIND PRES WAVE AIR SEA DIR/SP/G HT/PER (UTC) (F) (DEG/KT/KT) (MB) (FT/S) MOUNT DESERT ROC 1800 54 70/ 6/ 6 1016.3F MATINICUS ROCK 1800 56 90/ 8/ 8 1014.9F ISLE OF SHOALS 1800 59 70/ 11/ 12 1013.3F JEFFREYS LEDGE 1836 60 N/A 3/ 5 $$ .............KEY.............. WCI - WIND CHILL TC - TEMPERATURE IN CELSIUS VSB - VISIBILITY IN MILES HX - HEAT INDEX FAIR- INDICATES FEW OR NO CLOUDS BELOW 12,000 FT, WITH NO SIGNIFICANT WEATHER AND/OR OBSTRUCTIONS TO VISIBILITY.

USA.gov is the U.S. government's official web portal to all federal, state and local government web resources and services.